OpenBCM V1.13 (Linux)

Packet Radio Mailbox

DB0FHN

[JN59NK Nuernberg]

 Login: GUEST





  
CX2SA  > KEPS     31.07.26 02:42l 312 Lines 14847 Bytes #999 (0) @ AMSAT
BID : ORB26212.1
Read: OE5RCO DJ6UX GUEST
Subj: 2Line Orbital Elements 26212.AMSAT
Path: DB0FHN<DB0RKB<DK0WUE<HB9ON<HB9ON<PI8ZTM<CX2SA
Sent: 260731/0024Z @:CX2SA.SAL.URY.SOAM #:2459 [Salto] FBB7.00e $:ORB26212.1
From: CX2SA@CX2SA.SAL.URY.SOAM
To  : KEPS@AMSAT


QST de W1STR

AMSAT Orbital Elements for Amateur Satellites in TLE Format
>From Orbital Analysis Office
New England Sci-Tech STEM Education Center
Natick MA July 31, 2026
To all radio amateurs


These element sets describe the orbits of various satellites
in use by the amateur radio community. For details see:
www.amsat.org/keplerian-elements-formats/

A daily update of element sets is available at:
www.amsat.org/tle/daily-bulletin.txt
or without bulletin text:
www.amsat.org/tle/dailytle.txt


AO-07
1 07530U 74089B   26211.88502640 -.00000033  00000-0  84158-4 0  9995
2 07530 101.9911 225.5876 0012551  49.1780  70.3946 12.53698852365997
UO-11
1 14781U 84021B   26211.84800390  .00001612  00000-0  16910-3 0  9990
2 14781  97.8091 176.9459 0008756  47.8277 312.3683 14.90888965263633
LO-19
1 20442U 90005G   26211.29884642  .00000105  00000-0  54210-4 0  9993
2 20442  98.8845 234.2904 0012667  80.9857 279.2760 14.34134576908579
AO-27
1 22825U 93061C   26211.70209557  .00000100  00000-0  55083-4 0  9991
2 22825  98.6856 279.0940 0007860 340.3448  19.7431 14.30952615713227
FO-29
1 24278U 96046B   26211.78336186 -.00000009  00000-0  27848-4 0  9995
2 24278  98.5207  54.6792 0349572 343.4992  15.4998 13.53276001479063
GO-32
1 25397U 98043D   26210.98274592  .00000057  00000-0  44719-4 0  9998
2 25397  99.0098 204.8265 0002378  91.4963 268.6488 14.24435921457421
ISS
1 25544U 98067A   26211.86173118  .00009023  00000-0  17005-3 0  9997
2 25544  51.6314  83.9591 0007096 355.3737   4.7185 15.49272805578527
NO-44
1 26931U 01043C   26211.81246649  .00000140  00000-0  83162-4 0  9990
2 26931  67.0508 131.4370 0005769 267.9493  92.0948 14.31970704296695
SO-50
1 27607U 02058C   26211.78280639  .00001321  00000-0  17236-3 0  9991
2 27607  64.5531 354.0917 0074041 254.4251 104.8673 14.83131604270926
CO-55
1 27844U 03031E   26210.95833145  .00000277  00000-0  13862-3 0  9990
2 27844  98.6750 218.9816 0010714  64.7833 295.4455 14.24359648197761
RS-22
1 27939U 03042A   26211.88968442  .00000976  00000-0  15827-3 0  9998
2 27939  98.3474  37.4878 0012187 125.7256   9.5320 14.73540220221980
CO-65
1 32785U 08021C   26211.86244973  .00004272  00000-0  26820-3 0  9997
2 32785  97.8305 194.2097 0007150 232.3932 127.6648 15.09832469991783
CO-66
1 32791U 08021J   26211.26850080  .00018356  00000-0  55692-3 0  9997
2 32791  97.7534 211.2728 0004434 129.4802 230.6833 15.34159007993891
RS-30
1 32953U 08025A   26211.79806963  .00000058  00000-0  34929-3 0  9990
2 32953  82.5077 328.3132 0019117 213.4632 146.5241 12.43181405825114
SRMSAT
1 37841U 11058D   26211.13912250  .00000362  00000-0  52686-4 0  9995
2 37841  19.9705 159.4872 0011561 316.9330 154.7863 14.11583813763893
ZACUBE-1
1 39417U 13066B   26211.86349428  .00004266  00000-0  32860-3 0  9996
2 39417  97.7986 174.4084 0043788 105.1521 255.4552 15.01426372687285
Delfi-N3xt
1 39428U 13066N   26211.74155183  .00008703  00000-0  74555-3 0  9995
2 39428  97.8322 132.0186 0075768  62.4565 298.4328 14.95561531681136
GOMX-1
1 39430U 13066Q   26211.83152087  .00001239  00000-0  19231-3 0  9995
2 39430  97.6457  49.5413 0127045 297.6722  61.1639 14.69576135676326
LO-74
1 39440U 13066AA  26211.86743700  .00003464  00000-0  32046-3 0  9998
2 39440  97.8923 161.0454 0055634 241.7934 117.7661 14.94054951683518
AO-73
1 39444U 13066AE  26211.86622734  .00008766  00000-0  53399-3 0  9999
2 39444  97.8307 184.2474 0037501  56.8099 303.6717 15.10039058686259
DTUSAT-2
1 40030U 14033W   26210.96320353  .00007478  00000-0  39795-3 0  9992
2 40030  98.0879 211.4269 0009653  90.6795 269.5542 15.15529117659161
LILACSAT-2
1 40908U 15049K   26211.85318715  .00019357  00000-0  31258-3 0  9997
2 40908  97.4610 250.3883 0008674  96.4250 263.7990 15.52883313602520
Lapan A3
1 41603U 16040E   26211.85266611  .00003438  00000-0  10887-3 0  9997
2 41603  97.1513 206.5771 0009098 208.7388 151.3355 15.33364556561503
CAS-2T
1 41847U 16066G   26211.80226926  .00000700  00000-0  10723-3 0  9993
2 41847  98.3805 287.0396 0341296 357.4434   2.5000 14.44792690511098
TechnoSat
1 42829U 17042E   26211.86250625  .00003089  00000-0  22022-3 0  9996
2 42829  97.4325   7.8766 0016445 307.3310  52.6418 15.05181351493279
AO-91
1 43017U 17073E   26211.85808984  .00008666  00000-0  37297-3 0  9992
2 43017  97.4638  78.1831 0149051 177.1450 183.0668 15.13267772471990
S-Net D
1 43186U 18014G   26211.73646399  .00005311  00000-0  27171-3 0  9996
2 43186  97.5313 116.2560 0006806 217.0940 142.9824 15.17048188465363
S-Net B
1 43187U 18014H   26211.28705641  .00005124  00000-0  26252-3 0  9994
2 43187  97.5322 115.7973 0007483 214.3489 145.7261 15.17011173465298
S-Net A
1 43188U 18014J   26211.73510345  .00005254  00000-0  26875-3 0  9995
2 43188  97.5329 116.4597 0007404 213.4179 146.6587 15.17056494465369
S-Net C
1 43189U 18014K   26211.29117490  .00005038  00000-0  25818-3 0  9997
2 43189  97.5349 116.0997 0008912 208.3657 151.7092 15.17001514463843
Ten-Koh
1 43677U 18084G   26211.06384123  .00001976  00000-0  15131-3 0  9994
2 43677  98.0764  45.2362 0008759 347.5956  12.5051 15.03105639422604
PO-101
1 43678U 18084H   26211.84781971  .00002137  00000-0  17411-3 0  9996
2 43678  98.1210  49.9730 0011737  34.3126 325.8852 15.00615349422769
QO-100
1 43700U 18090A   26211.85808625  .00000149  00000-0  00000+0 0  9999
2 43700   0.0155  73.3360 0002543  89.2460 120.5849  1.00272190 28115
MinXSS-2
1 43758U 18099A   26211.84322817  .00040531  00000-0  72209-3 0  9997
2 43758  97.4508 289.4969 0008364 111.4967 248.7176 15.49970254420882
AO-95
1 43770U 18099N   26211.71644325  .00012172  00000-0  45321-3 0  9993
2 43770  97.4357 271.8213 0008692 182.1553 177.9650 15.27587967419862
SNUSat 2
1 43782U 18099AA  26211.12926384  .00008545  00000-0  37148-3 0  9996
2 43782  97.4032 263.8637 0011539 139.2699 220.9402 15.22457383419568
SnugLite
1 43784U 18099AC  26211.70324118  .00011824  00000-0  43415-3 0  9997
2 43784  97.3837 265.5740 0004550 123.0652 237.1025 15.28078752419961
ITASat 1
1 43786U 18099AE  26211.68782573  .00007244  00000-0  34312-3 0  9996
2 43786  97.3999 262.3390 0012189 192.3460 167.7478 15.19560196419510
EAGLET 1
1 43790U 18099AJ  26211.69986764  .00004258  00000-0  24291-3 0  9997
2 43790  97.4201 260.2174 0010938 186.5985 173.5104 15.13239821418912
ESEO
1 43792U 18099AL  26211.68290225  .00001238  00000-0  92760-4 0  9990
2 43792  97.3953 247.2071 0012014 175.4077 184.7262 15.04367791418348
JO-97
1 43803U 18099AX  26211.13954905  .00018744  00000-0  55343-3 0  9990
2 43803  97.4099 274.1545 0007401 115.6311 244.5698 15.34990018420213
Suomi 100
1 43804U 18099AY  26211.72973679  .00013525  00000-0  47594-3 0  9996
2 43804  97.4159 271.9823 0011437 123.4591 236.7744 15.29390949420076
ISAT
1 43879U 18111D   26211.83139220  .00147738  00000-0  98859-3 0  9995
2 43879  97.5847 150.7005 0009248 122.2069 238.0093 15.74798832418019
UWE-4
1 43880U 18111E   26211.86390939  .00036293  00000-0  67444-3 0  9995
2 43880  97.5834 142.3513 0008622 144.9890 215.1929 15.48786669417532
Sparrow
1 43881U 18111F   26211.81390289  .00478996  95288-4  12125-2 0  9990
2 43881  97.6027 157.3820 0010818 144.9092 215.2897 15.95410183418273
Prox-1
1 44339U 19036A   26211.22067262  .00012563  00000-0  11938-2 0  9992
2 44339  23.9929 186.5701 0006333 171.3064 188.7546 14.91554542379901
Taurus 1
1 44530U 19059C   26211.80566507  .00006001  00000-0  95239-3 0  9997
2 44530  98.6448  19.3622 0008995 167.2944 192.8489 14.72520354365068
TO-108
1 44881U 19093C   26211.86427561  .00000244  00000-0  33582-4 0  9993
2 44881  97.7514 283.0270 0012346 307.7483  52.2613 14.86579252357902
RS-44
1 44909U 19096E   26211.78604341  .00000021  00000-0  35347-4 0  9995
2 44909  82.5246 310.7382 0218107  42.6853 319.0964 12.79748804307929
SALSAT
1 46495U 20068K   26210.98092491  .00007903  00000-0  27151-3 0  9995
2 46495  97.8862 216.6722 0010705 143.8475 216.3490 15.30364567321901
CSS (TIANHE-1)
1 48274U 21035A   26211.85249311  .00020538  00000-0  26383-3 0  9994
2 48274  41.4686  56.9027 0001069 290.4268  69.6456 15.58612604299983
CUTE
1 49263U 21088D   26197.83813593  .08921004  25505-5  41832-3 0  9995
2 49263  97.3907 300.4441 0014216 277.7997  82.1689 16.41647044267308
TeikyoSat 4
1 49396U 21102B   26211.07382524  .00001882  00000-0  12054-3 0  9994
2 49396  97.3659 238.8901 0013107 139.5019 220.7189 15.09646740259190
Z-Sat
1 49399U 21102E   26211.88981057  .00004351  00000-0  21278-3 0  9994
2 49399  97.3304 245.8889 0018394  94.6315 265.7021 15.18578408260074
KOSEN 1
1 49402U 21102H   26211.06041418  .00008002  00000-0  29994-3 0  9997
2 49402  97.3162 252.3947 0014931  60.9487 299.3246 15.27413891260568
HO-113
1 50466U 21131B   26211.85753361  .00000530  00000-0  17738-3 0  9996
2 50466  98.4991 304.0117 0003602 345.4588  14.6497 14.41394138241407
SNUGLITE 2
1 52899U 22065F   26210.94151068  .00000940  00000-0  18691-3 0  9994
2 52899  98.2257 355.7105 0006281 245.0699 114.9852 14.64418331217258
UmKA 1 (RS40S)
1 57172U 23091G   26211.84150213  .00006089  00000-0  27505-3 0  9998
2 57172  97.5021 270.3772 0011460 334.0020  26.0639 15.21278731170641
CubeBel-2 (EU11S)
1 57175U 23091K   26211.81595554  .00012582  00000-0  43295-3 0  9998
2 57175  97.5023 275.4470 0008064 327.5617  32.5126 15.30174476170972
RS-38S
1 57189U 23091Z   26211.84124970  .00016467  00000-0  45170-3 0  9996
2 57189  97.5067 282.2362 0005304 269.0113  91.0524 15.37340574171396
SONATE-2
1 59112U 24043Q   26210.97809520  .00045149  00000-0  51672-3 0  9999
2 59112  97.5569   4.1152 0005882  53.9240 306.2561 15.61999425134563
